Abakan, Russia

6:04 AM +07 on November 12, 2019 (GMT +0700)
Abakan

Weather History for UNAA - August, 2019

Change the Weather History Date:

Monday, August 19, 2019

  Actual Average Record
Temperature  
Mean Temperature 60 °F -  
Max Temperature 73 °F - - ()
Min Temperature 48 °F - - ()
Degree Days  
Heating Degree Days 4    
Growing Degree Days 10 (Base 50)    
Moisture  
Dew Point 52 °F    
Average Humidity 71    
Maximum Humidity 100    
Minimum Humidity 47    
Precipitation  
Precipitation 0.00 in - - ()
Sea Level Pressure  
Sea Level Pressure 30.01 in    
Wind  
Wind Speed 3 mph ()    
Max Wind Speed 7 mph    
Max Gust Speed -    
Visibility 5.0 miles    
Events      
T = Trace of Precipitation, MM = Missing Value Source: Averaged Metar Reports

Daily Weather History Graph

Daily Weather History Graph

Search for Another Location

Airport or City:

Astronomy

Aug. 19, 2019 Rise Set
Actual Time 5:39 AM +07 8:16 PM +07
Civil Twilight 4:59 AM +07 8:55 PM +07
Nautical Twilight 4:08 AM +07 9:45 PM +07
Astronomical Twilight 3:05 AM +07 10:47 PM +07
Moon 9:55 PM +07 (8/19) 9:15 AM +07 (8/19)
Length of Visible Light 15h 55m
Length of Day
14h 36m
Waning Gibbous, 88% of the Moon is Illuminated
Aug 19
Waning Gibbous
Aug 23
Last Quarter
Aug 30
New
Sep 6
First Quarter
Sep 14
Full

Hourly Weather History & Observations

Time (+07) Temp. Dew Point Humidity Pressure Visibility Wind Dir Wind Speed Gust Speed Precip Events Conditions
12:00 AM 57.2 °F 51.8 °F 82% 29.95 in - Calm Calm - N/A   Clear
12:30 AM 55.4 °F 50.0 °F 82% 29.95 in - SW 2.2 mph - N/A   Clear
1:00 AM 55.4 °F 50.0 °F 82% 29.95 in - SW 4.5 mph - N/A   Clear
1:30 AM 53.6 °F 51.8 °F 94% 29.95 in - West 4.5 mph - N/A   Clear
2:00 AM 55.4 °F 51.8 °F 88% 29.95 in - SW 4.5 mph - N/A   Clear
2:30 AM 53.6 °F 51.8 °F 94% 29.95 in - West 4.5 mph - N/A   Clear
3:00 AM 51.8 °F 51.8 °F 100% 29.95 in 5.6 mi Variable 2.2 mph - N/A   Unknown
3:30 AM 51.8 °F 50.0 °F 94% 29.95 in 5.6 mi WSW 4.5 mph - N/A   Unknown
4:00 AM 51.8 °F 50.0 °F 94% 29.95 in 5.6 mi SW 2.2 mph - N/A   Unknown
4:30 AM 53.6 °F 51.8 °F 94% 29.98 in 5.0 mi SW 2.2 mph - N/A   Unknown
5:30 AM 48.2 °F 48.2 °F 100% 29.98 in 3.7 mi Calm Calm - N/A   Unknown
6:00 AM 50.0 °F 48.2 °F 94% 30.01 in 3.7 mi SE 2.2 mph - N/A   Unknown
6:30 AM 48.2 °F 48.2 °F 100% 30.01 in 3.1 mi Calm Calm - N/A   Mist
7:00 AM 51.8 °F 50.0 °F 94% 30.01 in 3.7 mi SW 2.2 mph - N/A   Unknown
7:30 AM 53.6 °F 51.8 °F 94% 30.04 in 5.6 mi Calm Calm - N/A   Unknown
8:00 AM 55.4 °F 53.6 °F 94% 30.04 in 5.6 mi Variable 2.2 mph - N/A   Unknown
8:30 AM 57.2 °F 53.6 °F 88% 30.04 in 5.6 mi SE 2.2 mph - N/A   Unknown
9:00 AM 60.8 °F 53.6 °F 77% 30.04 in - Variable 2.2 mph - N/A   Clear
9:30 AM 62.6 °F 55.4 °F 77% 30.04 in - Variable 2.2 mph - N/A   Clear
10:00 AM 64.4 °F 53.6 °F 68% 30.04 in - SSE 4.5 mph - N/A   Clear
10:30 AM 66.2 °F 53.6 °F 64% 30.04 in - Variable 2.2 mph - N/A   Clear
11:00 AM 68.0 °F 51.8 °F 56% 30.04 in - Variable 2.2 mph - N/A   Clear
11:30 AM 69.8 °F 51.8 °F 53% 30.04 in - SSW 4.5 mph - N/A   Clear
12:00 PM 69.8 °F 53.6 °F 56% 30.04 in - Variable 2.2 mph - N/A   Clear
12:30 PM 69.8 °F 51.8 °F 53% 30.04 in - SSW 4.5 mph - N/A   Clear
1:00 PM 69.8 °F 51.8 °F 53% 30.04 in 6.2 mi South 4.5 mph - N/A   Scattered Clouds
1:30 PM 71.6 °F 51.8 °F 50% 30.04 in - SSE 6.7 mph - N/A   Clear
2:00 PM 71.6 °F 53.6 °F 53% 30.04 in - Variable 2.2 mph - N/A   Clear
2:30 PM 71.6 °F 51.8 °F 50% 30.04 in 6.2 mi South 4.5 mph - N/A   Scattered Clouds
3:00 PM 71.6 °F 53.6 °F 53% 30.01 in - SSW 6.7 mph - N/A   Clear
3:30 PM 73.4 °F 51.8 °F 47% 30.01 in - Calm Calm - N/A   Clear
4:00 PM 73.4 °F 53.6 °F 50% 30.01 in - South 4.5 mph - N/A   Clear
4:30 PM 73.4 °F 51.8 °F 47% 30.01 in - SSW 6.7 mph - N/A   Clear
5:00 PM 73.4 °F 51.8 °F 47% 30.01 in - South 4.5 mph - N/A   Clear
5:30 PM 73.4 °F 51.8 °F 47% 30.01 in - Variable 2.2 mph - N/A   Clear
6:00 PM 71.6 °F 53.6 °F 53% 30.01 in - SSE 4.5 mph - N/A   Clear
6:30 PM 71.6 °F 53.6 °F 53% 30.01 in - SSE 4.5 mph - N/A   Clear
7:00 PM 71.6 °F 55.4 °F 57% 30.01 in - SE 4.5 mph - N/A   Clear
7:30 PM 69.8 °F 53.6 °F 56% 30.01 in - SE 4.5 mph - N/A   Clear
8:00 PM 69.8 °F 53.6 °F 56% 30.01 in - SE 4.5 mph - N/A   Clear
8:30 PM 68.0 °F 53.6 °F 60% 30.01 in - ESE 2.2 mph - N/A   Clear
9:00 PM 68.0 °F 53.6 °F 60% 30.01 in - East 4.5 mph - N/A   Clear
9:30 PM 68.0 °F 53.6 °F 60% 30.01 in - ESE 4.5 mph - N/A   Clear
10:00 PM 66.2 °F 55.4 °F 68% 30.01 in - SE 4.5 mph - N/A   Clear
10:30 PM 64.4 °F 55.4 °F 73% 30.01 in - SSE 4.5 mph - N/A   Clear
11:00 PM 62.6 °F 55.4 °F 77% 30.01 in - South 4.5 mph - N/A   Clear
11:30 PM 62.6 °F 55.4 °F 77% 30.01 in - SSE 6.7 mph - N/A   Clear